Ely, NV

4:27 AM PDT on May 27, 2017 (GMT -0700)
Ely

Weather History for KELY - October, 2014

Change the Weather History Date:

Wednesday, October 29, 2014

  Actual Average Record
Temperature  
Mean Temperature 48 °F 41 °F  
Max Temperature 70 °F 57 °F 74 °F (2003)
Min Temperature 25 °F 25 °F 1 °F (1971)
Degree Days  
Heating Degree Days 17 24  
Month to date heating degree days 403 561  
Since 1 July heating degree days 571 877  
Cooling Degree Days 0 0  
Month to date cooling degree days 0 0  
Year to date cooling degree days 286 218  
Moisture  
Dew Point 16 °F    
Average Humidity 34    
Maximum Humidity 55    
Minimum Humidity 13    
Precipitation  
Precipitation 0.00 in 0.03 in 0.65 in (1998)
Month to date precipitation T 0.93  
Year to date precipitation 8.09 8.40  
Snow  
Snow 0.00 in 0.10 in 3.30 in (1991)
Month to date snowfall 0.0 2.7  
Since 1 July snowfall 0.0 3.1  
Since 1 September snowfall 0.0 3.1  
Snow Depth 0.00 in    
Sea Level Pressure  
Sea Level Pressure 30.21 in    
Wind  
Wind Speed 9 mph (South)    
Max Wind Speed 16 mph    
Max Gust Speed 20 mph    
Visibility 10 miles    
Events      
T = Trace of Precipitation, MM = Missing Value Source: NWS Daily Summary

Daily Weather History Graph

Daily Weather History Graph

Search for Another Location

Airport or City:

Trip Planner

Search our weather history database for the weather conditions in past years. The results will help you decide how hot, cold, wet, or windy it might be!

Date:

Astronomy

Oct. 29, 2014 Rise Set
Actual Time 7:04 AM PDT 5:41 PM PDT
Civil Twilight 6:36 AM PDT 6:09 PM PDT
Nautical Twilight 6:04 AM PDT 6:40 PM PDT
Astronomical Twilight 5:33 AM PDT 7:11 PM PDT
Moon 12:25 PM PDT (10/29) 10:56 PM PDT (10/29)
Length of Visible Light 11h 32m
Length of Day
10h 37m
Waxing Crescent, 35% of the Moon is Illuminated
Oct 29
Waxing Crescent
Oct 30
First Quarter
Nov 6
Full
Nov 14
Last Quarter
Nov 22
New

Hourly Weather History & Observations

Time (PDT) Temp. Windchill Dew Point Humidity Pressure Visibility Wind Dir Wind Speed Gust Speed Precip Events Conditions
12:53 AM 30.0 °F 21.1 °F 12.0 °F 47% 30.19 in 10.0 mi South 10.4 mph - N/A   Clear
1:53 AM 28.9 °F 21.1 °F 12.0 °F 49% 30.20 in 10.0 mi South 8.1 mph - N/A   Clear
2:53 AM 28.0 °F 16.5 °F 12.0 °F 51% 30.19 in 10.0 mi South 15.0 mph - N/A   Clear
3:53 AM 30.0 °F 19.5 °F 12.9 °F 49% 30.17 in 10.0 mi South 13.8 mph - N/A   Clear
4:53 AM 26.1 °F 16.2 °F 12.0 °F 55% 30.20 in 10.0 mi South 10.4 mph - N/A   Clear
5:53 AM 27.0 °F 16.1 °F 12.0 °F 53% 30.26 in 10.0 mi South 12.7 mph - N/A   Clear
6:53 AM 26.1 °F 14.0 °F 12.0 °F 55% 30.31 in 10.0 mi South 15.0 mph - N/A   Clear
7:53 AM 28.4 °F 18.5 °F 12.2 °F 51% 30.34 in 10.0 mi South 11.5 mph - N/A   Clear
8:53 AM 41.0 °F 34.3 °F 15.1 °F 35% 30.30 in 10.0 mi South 11.5 mph - N/A   Clear
9:53 AM 53.1 °F - 17.1 °F 24% 30.26 in 10.0 mi South 9.2 mph - N/A   Clear
10:53 AM 60.1 °F - 18.0 °F 20% 30.23 in 10.0 mi South 3.5 mph - N/A   Clear
11:53 AM 64.0 °F - 23.0 °F 21% 30.20 in 10.0 mi ENE 5.8 mph - N/A   Clear
12:53 PM 66.0 °F - 23.0 °F 20% 30.18 in - Variable 4.6 mph - N/A   Clear
1:53 PM 66.9 °F - 19.0 °F 16% 30.15 in 10.0 mi SW 6.9 mph - N/A   Clear
2:53 PM 69.1 °F - 18.0 °F 14% 30.13 in 10.0 mi Variable 4.6 mph - N/A   Clear
3:53 PM 68.0 °F - 16.0 °F 14% 30.12 in 10.0 mi Variable 5.8 mph - N/A   Clear
4:53 PM 66.0 °F - 19.9 °F 17% 30.14 in 10.0 mi WNW 3.5 mph - N/A   Clear
5:53 PM 55.9 °F - 18.0 °F 23% 30.18 in 10.0 mi Calm Calm - N/A   Clear
6:53 PM 45.0 °F 41.2 °F 16.0 °F 31% 30.25 in 10.0 mi West 6.9 mph - N/A   Clear
7:53 PM 43.0 °F 37.2 °F 17.1 °F 35% 30.26 in 10.0 mi SSE 10.4 mph - N/A   Clear
8:53 PM 42.1 °F 37.1 °F 17.1 °F 37% 30.22 in 10.0 mi South 8.1 mph - N/A   Clear
9:53 PM 37.9 °F 30.5 °F 17.1 °F 43% 30.20 in 10.0 mi South 11.5 mph - N/A   Clear
10:53 PM 39.0 °F 32.3 °F 16.0 °F 39% 30.17 in 10.0 mi South 10.4 mph - N/A   Clear
11:53 PM 35.1 °F 26.9 °F 16.0 °F 46% 30.17 in 10.0 mi South 11.5 mph - N/A   Clear